TimeCST,TemperatureF,Dew PointF,Humidity,Sea Level PressureIn,VisibilityMPH,Wind Direction,Wind SpeedMPH,Gust SpeedMPH,PrecipitationIn,Events,Conditions,WindDirDegrees,DateUTC
12:28 AM,10.4,8.6,92,29.98,6.0,SW,9.2,-,N/A,,Overcast,230,2012-12-29 06:28:00
12:37 AM,10.4,8.6,92,29.97,5.0,WSW,9.2,-,N/A,,Overcast,240,2012-12-29 06:37:00
12:53 AM,10.9,9.0,92,30.06,5.0,SW,5.8,-,N/A,,Overcast,220,2012-12-29 06:53:00
1:53 AM,10.9,8.1,88,30.07,7.0,WSW,8.1,-,N/A,,Overcast,250,2012-12-29 07:53:00
2:43 AM,10.4,8.6,92,29.97,5.0,SW,6.9,-,0.00,Snow,Light Snow,230,2012-12-29 08:43:00
2:53 AM,10.9,8.1,88,30.06,5.0,SW,6.9,-,0.00,Snow,Light Snow,230,2012-12-29 08:53:00
3:53 AM,10.9,8.1,88,30.06,8.0,WSW,6.9,-,0.00,,Overcast,250,2012-12-29 09:53:00
4:53 AM,10.0,6.1,84,30.06,6.0,West,10.4,-,N/A,,Overcast,260,2012-12-29 10:53:00
5:53 AM,6.1,1.9,83,30.06,7.0,SW,6.9,-,N/A,,Mostly Cloudy,220,2012-12-29 11:53:00
6:09 AM,5.0,1.4,85,29.96,8.0,SW,6.9,-,N/A,,Mostly Cloudy,230,2012-12-29 12:09:00
6:53 AM,5.0,1.9,87,30.06,6.0,SSW,5.8,-,N/A,,Overcast,210,2012-12-29 12:53:00
7:03 AM,6.8,1.4,79,29.96,6.0,SSW,4.6,-,N/A,,Overcast,200,2012-12-29 13:03:00
7:33 AM,6.8,1.4,79,29.96,6.0,SSW,6.9,-,N/A,,Overcast,200,2012-12-29 13:33:00
7:53 AM,5.0,1.0,84,30.06,6.0,SW,6.9,-,N/A,,Overcast,220,2012-12-29 13:53:00
8:08 AM,3.2,1.4,92,29.97,7.0,SW,6.9,-,N/A,,Overcast,220,2012-12-29 14:08:00
8:34 AM,1.4,-2.2,85,29.98,6.0,SW,6.9,-,N/A,,Overcast,230,2012-12-29 14:34:00
8:53 AM,-0.0,-4.0,83,30.09,6.0,SW,5.8,-,N/A,,Scattered Clouds,230,2012-12-29 14:53:00
9:53 AM,1.0,-4.0,79,30.10,9.0,West,4.6,-,N/A,,Clear,280,2012-12-29 15:53:00
10:53 AM,3.9,-0.9,80,30.11,10.0,West,5.8,-,N/A,,Overcast,280,2012-12-29 16:53:00
11:19 AM,5.0,-0.4,78,29.99,8.0,WNW,5.8,-,N/A,,Overcast,290,2012-12-29 17:19:00
11:53 AM,6.1,-0.0,76,30.09,6.0,West,5.8,-,0.00,Snow,Light Snow,270,2012-12-29 17:53:00
12:53 PM,7.0,-0.0,73,30.08,7.0,WNW,8.1,-,0.00,,Overcast,300,2012-12-29 18:53:00
1:53 PM,8.1,1.0,73,30.08,5.0,WNW,9.2,-,N/A,,Haze,290,2012-12-29 19:53:00
2:53 PM,6.1,-0.0,76,30.08,9.0,West,6.9,-,0.00,,Mostly Cloudy,280,2012-12-29 20:53:00
3:07 PM,6.8,-0.4,72,29.98,10.0,West,5.8,-,N/A,,Scattered Clouds,270,2012-12-29 21:07:00
3:53 PM,3.9,-2.0,76,30.10,10.0,West,6.9,-,N/A,,Clear,270,2012-12-29 21:53:00
4:53 PM,1.4,-2.2,85,30.00,10.0,WNW,8.1,-,N/A,,Clear,290,2012-12-29 22:53:00
5:53 PM,-5.1,-9.0,83,30.14,10.0,West,3.5,-,N/A,,Clear,280,2012-12-29 23:53:00
6:53 PM,-5.1,-8.0,87,30.15,8.0,WNW,3.5,-,N/A,,Clear,290,2012-12-30 00:53:00
7:53 PM,-4.0,-8.0,83,30.17,10.0,West,3.5,-,N/A,,Clear,280,2012-12-30 01:53:00
8:53 PM,-6.0,-9.9,83,30.17,8.0,West,3.5,-,N/A,,Clear,270,2012-12-30 02:53:00
9:53 PM,-4.0,-9.0,79,30.16,8.0,Calm,Calm,-,N/A,,Clear,0,2012-12-30 03:53:00
10:53 PM,-9.9,-14.1,82,30.19,8.0,Calm,Calm,-,N/A,,Clear,0,2012-12-30 04:53:00
11:53 PM,-7.1,-11.9,79,30.18,10.0,Calm,Calm,-,N/A,,Clear,0,2012-12-30 05:53:00